www.pogodaiklimat.ru

Погода и климат >> Архив погоды >> Иран >> Остров Абу-Муса


ПОГОДА на Острове Абу-Муса

  • Прогноз погоды на Острове Абу-Муса
  • Монитор погоды на Острове Абу-Муса

АРХИВ ПОГОДЫ на Острове Абу-Муса

Время (UTC), дата Ветер
(напр.,м/с)
 
Видим.   Явления Облачность Т
(С)
Тd
(С)
f
(%)
Тe
(С)
Тes
(С)
Комфортность P
(гПа)
Po
(гПа)
Тmin
(С)
Tmax
(С)
R
(мм)
R24
(мм)
S
(см)
09 16.07 Ю 5 10 км ясно +35.2 +26.4 60 +51 +63 опасность
перегрева
994.8 994.1
12 16.07 ЮЗ 5 10 км ясно +35.4 +30.2 75 +63 +68 опасность
перегрева
993.6 992.9
15 16.07 ЮЗ 5 10 км ясно +33.4 +27.4 71 +53 +53 опасность
перегрева
994.0 993.3 +35.4
03 17.07 Ю 3 5000 м мгла ясно +32.0 +27.7 78 +52 +53 опасность
перегрева
996.6 995.9 +30.4
06 17.07 Ю 3 6000 м мгла ясно +34.0 +30.2 81 +62 +75 опасность
перегрева
997.8 997.1
09 17.07 З 2 2000 м мгла ясно +36.8 +27.3 58 +55 +77 опасность
перегрева
996.8 996.1
12 17.07 С 3 6000 м мгла ясно +37.2 +30.0 67 +64 +71 опасность
перегрева
995.7 995.0
15 17.07 СВ 2 6000 м мгла 4/0
[Ci fib]
+34.6 +26.7 64 +52 +52 опасность
перегрева
995.5 994.8 +37.8
03 18.07 СВ 2 6000 м дымка ясно +32.4 +28.6 80 +54 +56 опасность
перегрева
996.8 996.1 +31.2
06 18.07 Ю 4 5000 м мгла ясно +35.2 +30.1 75 +62 +73 опасность
перегрева
998.5 997.8
09 18.07 СЗ 4 6000 м мгла ясно +37.0 +27.6 59 +56 +71 опасность
перегрева
997.8 997.1
12 18.07 СЗ 4 6000 м мгла ясно +35.8 +30.0 72 +63 +69 опасность
перегрева
996.3 995.6
15 18.07 СЗ 2 6000 м мгла ясно +34.0 +28.6 74 +57 +57 опасность
перегрева
995.6 994.9 +37.2
03 19.07 В 2 5000 м дымка ясно +32.4 +28.9 82 +56 +58 опасность
перегрева
997.1 996.4 +30.6
06 19.07 Ю 4 6000 м мгла ясно +35.6 +30.0 73 +63 +73 опасность
перегрева
998.4 997.7
09 19.07 С 2 6000 м мгла ясно +35.2 +27.6 65 +55 +76 опасность
перегрева
997.6 996.9
12 19.07 СВ 6 6000 м мгла 4/3 750 м
[Sc Ci fib]
+36.0 +30.0 71 +62 +65 опасность
перегрева
996.0 995.3
15 19.07 СЗ 2 6000 м мгла ясно +34.0 +27.2 68 +53 +53 опасность
перегрева
996.4 995.7 +37.2
03 20.07 ЮВ 5 10 км ясно +32.6 +28.6 80 +55 +56 опасность
перегрева
998.5 997.8 +31.4
06 20.07 Ю 8 6000 м пыльный позёмок ясно +35.2 +30.3 76 +63 +66 опасность
перегрева
999.9 999.1
09 20.07 СВ 3 6000 м мгла ясно +37.0 +27.0 57 +55 +73 опасность
перегрева
999.1 998.4
12 20.07 СВ 5 6000 м мгла ясно +36.0 +30.0 71 +62 +67 опасность
перегрева
997.8 997.1
15 20.07 СВ 2 6000 м мгла ясно +35.8 +25.3 55 +50 +50 опасность
перегрева
996.8 996.1 +37.2
03 21.07 ЮВ 2 10 км ясно +32.8 +27.6 74 +52 +54 опасность
перегрева
999.2 998.5 +31.4
06 21.07 Ю 4 6000 м мгла ясно +36.0 +30.1 72 +63 +74 опасность
перегрева
1000.1 999.3
09 21.07 С 4 6000 м мгла ясно +36.6 +28.0 61 +57 +71 опасность
перегрева
998.9 998.2
12 21.07 С 3 6000 м мгла ясно +36.0 +30.1 72 +63 +71 опасность
перегрева
997.6 996.9
15 21.07 СЗ 2 6000 м мгла ясно +34.6 +27.6 67 +54 +54 опасность
перегрева
996.6 995.9 +37.4
03 22.07 СВ 2 5000 м дымка 4/1 750 м
[Sc Ci fib]
+32.8 +29.6 83 +58 +60 опасность
перегрева
997.4 996.7 +31.2
06 22.07 В 6 6000 м мгла ясно +35.0 +30.2 76 +62 +69 опасность
перегрева
998.7 998.0
09 22.07 С 2 6000 м мгла 3/0
[Ci fib]
+37.0 +27.9 60 +57 +77 опасность
перегрева
997.3 996.6
12 22.07 СЗ 2 6000 м мгла ясно +37.4 +30.1 66 +64 +73 опасность
перегрева
995.6 994.9
15 22.07 СЗ 3 6000 м мгла 3/0
[Ci fib]
+34.8 +28.4 70 +57 +57 опасность
перегрева
995.8 995.1 +37.4
03 23.07 В 4 6000 м мгла ясно +32.8 +28.2 77 +54 +55 опасность
перегрева
996.0 995.3 +30.4
06 23.07 Ю 7 6000 м мгла ясно +35.6 +30.3 74 +63 +68 опасность
перегрева
997.7 997.0

 

Местоположение метеостанции Остров Абу-Муса (Иран): широта 25.83 долгота 54.83 высота над уровнем моря 6 м.

В архиве по умолчанию представлена погода на Острове Абу-Муса за последнюю неделю. Архивные данные за месяц целиком и за предыдущие месяцы, начиная с января 2011 года, Вы можете получить, выбрав интересующий диапазон дат из раскрывающегося списка и нажав кнопку "Ввод!".


*Определитесь, кто Вы:
робот инопланетянин человек

Внимание! Время в таблицах - всемирное. Для получения местного времени необходимо прибавить поправку, которая равна 3.5 ч.

Смотрите также архив погоды в соседних городах и на ближайших метеорологических станциях:

Погода на Острове Сирри (Иран) (29 км)
Погода в Дубае (ОАЭ) (82 км)
Погода в Бендер-Ленге (Иран) (83 км)
Погода в Шардже (ОАЭ) (89 км)
Погода в Аль-Мактум аэропорту (ОАЭ) (109 км)
Погода в Рай-эль-Хайма аэропорту (ОАЭ) (113 км)
Погода на Острове Киш (Иран) (113 км)
Погода в Дибе (Оман) (144 км)
Погода в Эль-Хасаб аэропорту (Оман) (145 км)
Погода в Эль-Хасабе (Оман) (147 км)

Пояснения к столбцам:

Ветер - указаны скорость ветра в м/с - средняя за 10 мин, порывы в срок и между сроками (в фигурных скобках) и направление, откуда дует ветер: С - северный, СВ - северо-восточный, В - восточный, ЮВ - юго-восточный, Ю - южный, ЮЗ - юго-западный, З - западный, СЗ - северо-западный.
Видимость - горизонтальная дальность видимости в метрах или километрах. При видимости от 1 до 10 км при отсутствии осадков обычно наблюдается дымка, при ухудшении видимости до 1 км и менее - туман. В сухую погоду видимость может ухудшаться дымом, пылью или мглою.
Явления - указаны атмосферные явления, наблюдавшиеся в срок или в последний час перед сроком; фигурными скобками обозначены явления, наблюдавшиеся между сроками (за 1-3 часа до срока); квадратными скобками обозначены град или гололедные отложения с указанием их диаметра в мм.
Облачность - указаны через наклонную черту общая и нижняя облачность в баллах и высота нижней границы облаков в метрах; квадратными скобками обозначены формы облаков: Ci - перистые, Cs - перисто-слоистые, Cc - перисто-кучевые, Ac - высококучевые, As - высокослоистые, Sc - слоисто-кучевые, Ns - слоисто-дождевые, Cu - кучевые, Cb - кучево-дождевые. Подробнее классификацию облаков см. в Атласе облаков (PDF).
T - Температура воздуха - температура, измеренная на высоте 2 м над землей.
Td - Температура точки росы - температура, при понижении до которой содержащийся в воздухе водяной пар достигнет насыщения.
f - Относительная влажность воздуха - влажноcть воздуха, измеренная на высоте 2 м над землей.
Te - Эффективная температура - температура, которую ощущает одетый по сезону человек в тени. Характеристика душности погоды. При расчете учитывается влияние влажности воздуха и скорости ветра на теплоощущения человека.
Tes - Эффективная температура на солнце - температура, которую ощущает человек, с поправкой на солнечный нагрев. Характеристика знойности погоды. Зависит от высоты солнца над горизонтом, облачности и скорости ветра. Ночью, в пасмурную погоду, а также при ветре 12 м/с и более поправка равна нулю.
P - Атмосферное давление - приведенное к уровню моря атмосферное давление.
Po - Атмосферное давление - измеренное на уровне метеостанции атмосферное давление.
Tmin - Минимальная температура - минимум температуры воздуха на высоте 2 м над землей.
Tmax - Максимальная температура - максимум температуры воздуха на высоте 2 м над землей.
R - Количество осадков - Количество выпавших осадков за период времени, мм. При наведении курсора мыши на число - период времени, за который выпало указанное количество осадков.
R24 - Количество осадков - Количество выпавших осадков за 24 часа, мм.
S - Снежный покров - Высота снежного покрова, см. При наведении курсора мыши на число - состояние снежного покрова и степень покрытия местности в баллах.